Ashtabula, OH

11:22 AM EDT on September 18, 2019 (GMT -0400)
Ashtabula County

Weather History for KHZY - May, 2019

Change the Weather History Date:

Saturday, May 18, 2019

  Actual Average (WUND) Record (WUND)
Temperature  
Mean Temperature 62 °F -  
Max Temperature 79 °F - - (-1)
Min Temperature 46 °F - - (-1)
Degree Days  
Heating Degree Days 2    
Growing Degree Days 12 (Base 50)    
Moisture  
Dew Point 55 °F    
Average Humidity 79    
Maximum Humidity 93    
Minimum Humidity 56    
Precipitation  
Precipitation 0.04 in - - ()
Sea Level Pressure  
Sea Level Pressure 29.96 in    
Wind  
Wind Speed 4 mph (SSE)    
Max Wind Speed 9 mph    
Max Gust Speed -    
Visibility 10 miles    
Events Rain    
Averages and records for this station are not official NWS values.
T = Trace of Precipitation, MM = Missing Value Source: NWS Daily Summary

Daily Weather History Graph

Daily Weather History Graph

Search for Another Location

Airport or City:

Astronomy

May. 18, 2019 Rise Set
Actual Time 6:00 AM EDT 8:38 PM EDT
Civil Twilight 5:28 AM EDT 9:10 PM EDT
Nautical Twilight 4:48 AM EDT 9:51 PM EDT
Astronomical Twilight 4:02 AM EDT 10:36 PM EDT
Moon 8:31 PM EDT 6:07 AM EDT
Length of Visible Light 15h 42m
Length of Day
14h 38m
Full, 100% of the Moon is Illuminated
May 18
Full
May 18
Full
May 26
Last Quarter
Jun 3
New
Jun 10
First Quarter

Hourly Weather History & Observations

Time (EDT) Temp. Dew Point Humidity Pressure Visibility Wind Dir Wind Speed Gust Speed Precip Events Conditions
12:53 AM 51.1 °F 45.0 °F 80% 29.99 in 10.0 mi WSW 3.5 mph - N/A   Mostly Cloudy
1:53 AM 46.9 °F 45.0 °F 93% 29.99 in 10.0 mi WNW 4.6 mph - N/A   Partly Cloudy
2:53 AM 48.0 °F 44.1 °F 86% 29.98 in 10.0 mi Calm Calm - N/A   Partly Cloudy
3:53 AM 48.9 °F 45.0 °F 86% 29.98 in 10.0 mi Calm Calm - N/A   Overcast
4:53 AM 48.9 °F 46.0 °F 90% 29.99 in 10.0 mi Calm Calm - N/A   Overcast
5:53 AM 50.0 °F 46.0 °F 86% 29.99 in 10.0 mi Calm Calm - N/A   Overcast
6:53 AM 50.0 °F 46.0 °F 86% 29.99 in 10.0 mi Calm Calm - N/A   Mostly Cloudy
7:53 AM 53.1 °F 46.9 °F 80% 30.01 in 10.0 mi Calm Calm - N/A   Overcast
8:53 AM 54.0 °F 48.9 °F 83% 30.03 in 10.0 mi Calm Calm - 0.00 in Rain Light Rain
9:53 AM 54.0 °F 52.0 °F 93% 30.04 in 9.0 mi East 4.6 mph - 0.02 in Rain Light Rain
10:53 AM 55.0 °F 51.1 °F 86% 30.04 in 8.0 mi South 4.6 mph - 0.01 in Rain Light Rain
11:53 AM 57.9 °F 54.0 °F 87% 30.01 in 10.0 mi SE 8.1 mph - 0.01 in   Mostly Cloudy
12:07 PM 60.1 °F 55.0 °F 83% 30.00 in 10.0 mi SSE 9.2 mph - N/A   Overcast
12:53 PM 63.0 °F 55.9 °F 78% 29.99 in 10.0 mi ESE 8.1 mph - N/A   Scattered Clouds
1:53 PM 68.0 °F 59.0 °F 73% 29.97 in 10.0 mi SE 9.2 mph - N/A   Clear
2:53 PM 72.0 °F 62.1 °F 71% 29.95 in 10.0 mi South 5.8 mph - N/A   Partly Cloudy
3:53 PM 75.9 °F 64.0 °F 67% 29.93 in 10.0 mi SE 8.1 mph - N/A   Scattered Clouds
4:53 PM 77.0 °F 63.0 °F 62% 29.91 in 10.0 mi Variable 4.6 mph - N/A   Clear
5:53 PM 79.0 °F 62.1 °F 56% 29.90 in 10.0 mi West 4.6 mph - N/A   Clear
6:53 PM 79.0 °F 63.0 °F 58% 29.88 in 10.0 mi SSE 6.9 mph - N/A   Clear
7:53 PM 75.9 °F 64.0 °F 67% 29.90 in 10.0 mi South 8.1 mph - N/A   Clear
8:53 PM 69.1 °F 63.0 °F 81% 29.90 in 10.0 mi ESE 3.5 mph - N/A   Partly Cloudy
9:53 PM 69.1 °F 63.0 °F 81% 29.88 in 10.0 mi SSE 6.9 mph - N/A   Clear
10:53 PM 70.0 °F 64.0 °F 81% 29.88 in 10.0 mi SSE 8.1 mph - N/A   Mostly Cloudy
11:53 PM 70.0 °F 63.0 °F 78% 29.88 in 10.0 mi SSW 9.2 mph - N/A   Clear